N0PB Weather Reports


time (UTC)temp
C
wind
direction
speed
KPH
gust
KPH
rain 1hr
cm
rain 24hr
cm
rain mn
cm
humidity
%
barometer
mb
20260504204536 25 222 22.5 30.6 0.00 0.03 0.03 49 999.6
20260504203033 25 230 22.5 35.4 0.00 0.03 0.03 50 999.8
20260504201531 25 231 14.5 33.8 0.00 0.03 0.03 52 999.9
20260504200029 25 216 25.7 40.2 0.00 0.03 0.03 49 1000.1
20260504194527 25 222 22.5 37.0 0.00 0.03 0.03 52 1000.3
20260504193026 25 181 17.7 30.6 0.00 0.03 0.03 49 1000.3
20260504191525 24 219 17.7 29.0 0.00 0.03 0.03 49 1000.3
20260504190021 23 231 17.7 30.6 0.00 0.03 0.03 54 1000.5
20260504184526 24 222 20.9 33.8 0.00 0.03 0.03 52 1000.6
20260504183020 23 245 22.5 32.2 0.00 0.03 0.03 50 1000.6
20260504181516 23 220 16.1 30.6 0.00 0.03 0.03 50 1000.5
20260504180013 23 232 22.5 32.2 0.00 0.03 0.03 56 1000.7
20260504174511 23 222 20.9 33.8 0.00 0.03 0.03 53 1000.8
20260504173008 23 216 16.1 29.0 0.00 0.03 0.03 53 1001.1
20260504171505 22 232 24.1 40.2 0.00 0.03 0.03 53 1001.3
20260504081501 15 143 3.2 8.0 0.00 0.00 0.00 77 1004.5
20260504044533 15 283 0.0 0.0 0.00 0.00 0.00 79 1006.7
20260504043031 15 283 0.0 0.0 0.00 0.00 0.00 76 1006.8
20260504041534 15 283 0.0 0.0 0.00 0.00 0.00 77 1006.7
20260504040029 15 283 0.0 0.0 0.00 0.00 0.00 77 1006.8
20260504034529 16 283 0.0 3.2 0.00 0.00 0.00 73 1007.0
20260504033029 16 283 3.2 4.8 0.00 0.00 0.00 72 1007.2
20260504031528 16 283 0.0 3.2 0.00 0.00 0.00 73 1007.0
20260504030028 16 283 0.0 3.2 0.00 0.00 0.00 71 1007.1
20260504024528 17 283 0.0 0.0 0.00 0.00 0.00 66 1006.9
20260504023027 17 283 0.0 0.0 0.00 0.00 0.00 66 1006.9
20260504021526 17 283 0.0 0.0 0.00 0.00 0.00 59 1006.8
20260504020025 17 283 0.0 1.6 0.00 0.00 0.00 61 1006.8
20260504014528 18 283 0.0 0.0 0.00 0.00 0.00 63 1006.9
20260504013025 19 283 0.0 1.6 0.00 0.00 0.00 59 1006.8
20260504011524 21 283 0.0 3.2 0.00 0.00 0.00 50 1006.9
20260504010024 21 283 1.6 4.8 0.00 0.00 0.00 49 1006.8
20260504004524 21 283 1.6 4.8 0.00 0.00 0.00 49 1006.8
20260504003022 22 283 3.2 4.8 0.00 0.00 0.00 48 1006.9
20260504001522 22 283 6.4 12.9 0.00 0.00 0.00 47 1006.9
20260504000020 22 289 8.0 17.7 0.00 0.00 0.00 47 1007.0
20260503234519 23 286 8.0 12.9 0.00 0.00 0.00 47 1007.0
20260503233028 23 281 6.4 16.1 0.00 0.00 0.00 48 1007.2
20260503231519 22 289 6.4 16.1 0.00 0.00 0.00 47 1007.2
20260503230016 22 295 12.9 19.3 0.00 0.00 0.00 47 1007.3
20260503224515 23 278 17.7 24.1 0.00 0.00 0.00 46 1007.3
20260503223015 23 256 17.7 24.1 0.00 0.00 0.00 46 1007.2
20260503221521 23 278 17.7 25.7 0.00 0.00 0.00 46 1007.3
20260503220013 23 281 16.1 25.7 0.00 0.00 0.00 47 1007.4
20260503214511 23 242 22.5 35.4 0.00 0.00 0.00 44 1007.4
20260503213006 23 253 16.1 25.7 0.00 0.00 0.00 47 1007.4
20260503211503 23 242 17.7 30.6 0.00 0.00 0.00 46 1007.7
20260503210104 23 240 20.9 37.0 0.00 0.00 0.00 48 1007.9